When you browse on this site, cookies collect data to enhance your experience and personalize the content and advertising you see.
Visit our Privacy Policy to learn more. By continuing to use the site, you agree to this use of cookies and data.
  • Em Portugal
  • Lista de países
  • Para 7 dias
  • Temperatura da água
  • Mapas de satélite
  • Mapa do tempo
  • Widgets de tempo
  • user-avatar
    Iniciar Sessão

    Previsão horária em Artemovsk

    Hoje, 21 Maio, Terça-feira

    Tempo Temperatura Precipitação Vento Pressão Humidade
    00:00 +14°C° 0 mm 3 m/s 754 mmHg 67%
    01:00 +14°C° 0 mm 3 m/s 754 mmHg 68%
    02:00 +13°C° 0 mm 3 m/s 754 mmHg 69%
    03:00 +13°C° 0 mm 3 m/s 754 mmHg 71%
    04:00 +13°C° 0 mm 3 m/s 754 mmHg 72%
    05:00 +13°C° 0 mm 3 m/s 754 mmHg 74%
    06:00 +13°C° 0 mm 3 m/s 755 mmHg 76%
    07:00 +16°C° 0 mm 3 m/s 755 mmHg 69%
    08:00 +18°C° 0 mm 4 m/s 754 mmHg 63%
    09:00 +20°C° 0 mm 4 m/s 754 mmHg 56%
    10:00 +22°C° 0 mm 5 m/s 754 mmHg 52%
    11:00 +23°C° 0 mm 5 m/s 754 mmHg 48%
    12:00 +25°C° 0 mm 5 m/s 754 mmHg 44%
    13:00 +25°C° 0 mm 5 m/s 754 mmHg 44%
    14:00 +26°C° 0 mm 5 m/s 754 mmHg 43%
    15:00 +26°C° 0 mm 5 m/s 753 mmHg 42%
    16:00 +25°C° 0 mm 5 m/s 753 mmHg 46%
    17:00 +25°C° 0 mm 4 m/s 753 mmHg 51%
    18:00 +24°C° 0 mm 3 m/s 752 mmHg 55%
    19:00 +22°C° 0 mm 3 m/s 752 mmHg 58%
    20:00 +20°C° 0 mm 3 m/s 752 mmHg 60%
    21:00 +19°C° 0 mm 3 m/s 752 mmHg 63%
    22:00 +18°C° 0.1 mm 3 m/s 752 mmHg 64%
    23:00 +18°C° 0.1 mm 3 m/s 752 mmHg 65%

    Amanhã, 22 Maio, Quarta-feira

    Tempo Temperatura Precipitação Vento Pressão Humidade
    00:00 +18°C° 0.1 mm 3 m/s 752 mmHg 65%
    01:00 +17°C° 0.1 mm 3 m/s 752 mmHg 66%
    02:00 +17°C° 0.1 mm 4 m/s 752 mmHg 67%
    03:00 +17°C° 0.1 mm 4 m/s 751 mmHg 67%
    04:00 +15°C° 0.2 mm 4 m/s 751 mmHg 70%
    05:00 +15°C° 0.2 mm 4 m/s 751 mmHg 73%
    06:00 +14°C° 0.2 mm 4 m/s 751 mmHg 76%
    07:00 +15°C° 0.2 mm 4 m/s 751 mmHg 73%
    08:00 +15°C° 0.2 mm 5 m/s 750 mmHg 70%
    09:00 +16°C° 0.2 mm 5 m/s 750 mmHg 67%
    10:00 +17°C° 0 mm 5 m/s 750 mmHg 60%
    11:00 +20°C° 0 mm 5 m/s 750 mmHg 53%
    12:00 +21°C° 0 mm 5 m/s 750 mmHg 46%
    13:00 +22°C° 0 mm 5 m/s 749 mmHg 46%
    14:00 +22°C° 0 mm 5 m/s 749 mmHg 46%
    15:00 +22°C° 0 mm 5 m/s 749 mmHg 46%
    16:00 +22°C° 0 mm 4 m/s 748 mmHg 49%
    17:00 +21°C° 0 mm 4 m/s 748 mmHg 53%
    18:00 +21°C° 0 mm 4 m/s 748 mmHg 57%
    19:00 +19°C° 0 mm 3 m/s 748 mmHg 60%
    20:00 +17°C° 0 mm 2 m/s 748 mmHg 64%
    21:00 +16°C° 0 mm 2 m/s 748 mmHg 67%
    22:00 +16°C° 0 mm 1 m/s 748 mmHg 68%
    23:00 +16°C° 0 mm 1 m/s 747 mmHg 68%

    Depois de amanhã, 23 Maio, Quinta-feira

    Tempo Temperatura Precipitação Vento Pressão Humidade
    00:00 +15°C° 0 mm 0 m/s 747 mmHg 68%
    01:00 +15°C° 0.1 mm 0 m/s 747 mmHg 70%
    02:00 +14°C° 0.1 mm 0 m/s 747 mmHg 72%
    03:00 +15°C° 0.1 mm 1 m/s 747 mmHg 73%
    04:00 +15°C° 0 mm 1 m/s 747 mmHg 74%
    05:00 +15°C° 0 mm 1 m/s 747 mmHg 75%
    06:00 +15°C° 0 mm 1 m/s 747 mmHg 76%
    07:00 +18°C° 0 mm 1 m/s 747 mmHg 71%
    08:00 +18°C° 0 mm 2 m/s 747 mmHg 65%
    09:00 +19°C° 0 mm 2 m/s 747 mmHg 59%
    10:00 +21°C° 0 mm 2 m/s 748 mmHg 54%
    11:00 +23°C° 0 mm 2 m/s 748 mmHg 50%
    12:00 +24°C° 0 mm 2 m/s 748 mmHg 46%
    13:00 +24°C° 0 mm 2 m/s 748 mmHg 43%
    14:00 +25°C° 0 mm 2 m/s 747 mmHg 41%
    15:00 +26°C° 0 mm 2 m/s 747 mmHg 39%
    16:00 +25°C° 0 mm 2 m/s 747 mmHg 42%
    17:00 +25°C° 0 mm 2 m/s 747 mmHg 44%
    18:00 +25°C° 0 mm 2 m/s 747 mmHg 47%
    19:00 +23°C° 0 mm 2 m/s 747 mmHg 52%
    20:00 +20°C° 0 mm 2 m/s 747 mmHg 58%
    21:00 +19°C° 0 mm 1 m/s 748 mmHg 63%
    22:00 +19°C° 0 mm 1 m/s 748 mmHg 69%
    23:00 +18°C° 0 mm 1 m/s 748 mmHg 75%

    24 Maio, Sexta-feira

    Tempo Temperatura Precipitação Vento Pressão Humidade
    00:00 +18°C° 0 mm 1 m/s 748 mmHg 81%
    01:00 +18°C° 0 mm 1 m/s 748 mmHg 82%
    02:00 +16°C° 0 mm 2 m/s 748 mmHg 84%
    03:00 +16°C° 0 mm 2 m/s 748 mmHg 85%
    04:00 +16°C° 0 mm 2 m/s 748 mmHg 85%
    05:00 +17°C° 0 mm 2 m/s 748 mmHg 85%
    06:00 +17°C° 0 mm 2 m/s 748 mmHg 85%
    07:00 +19°C° 0.2 mm 2 m/s 748 mmHg 77%
    08:00 +21°C° 0.2 mm 2 m/s 748 mmHg 70%
    09:00 +24°C° 0.2 mm 2 m/s 748 mmHg 63%
    10:00 +25°C° 0.4 mm 2 m/s 748 mmHg 58%
    11:00 +26°C° 0.4 mm 3 m/s 748 mmHg 53%
    12:00 +27°C° 0.4 mm 3 m/s 748 mmHg 47%
    13:00 +27°C° 0 mm 3 m/s 748 mmHg 49%
    14:00 +27°C° 0 mm 3 m/s 748 mmHg 50%
    15:00 +27°C° 0 mm 3 m/s 747 mmHg 51%
    16:00 +26°C° 0.1 mm 3 m/s 747 mmHg 54%
    17:00 +26°C° 0.1 mm 3 m/s 747 mmHg 57%
    18:00 +26°C° 0.1 mm 3 m/s 747 mmHg 59%
    19:00 +24°C° 0.5 mm 3 m/s 747 mmHg 66%
    20:00 +21°C° 0.5 mm 2 m/s 747 mmHg 72%
    21:00 +19°C° 0.5 mm 2 m/s 747 mmHg 78%
    22:00 +18°C° 0.1 mm 2 m/s 747 mmHg 79%
    23:00 +18°C° 0.1 mm 2 m/s 747 mmHg 80%

    25 Maio, Sábado

    Tempo Temperatura Precipitação Vento Pressão Humidade
    00:00 +17°C° 0.1 mm 2 m/s 747 mmHg 81%
    01:00 +17°C° 0 mm 2 m/s 746 mmHg 80%
    02:00 +16°C° 0 mm 2 m/s 746 mmHg 78%
    03:00 +16°C° 0 mm 1 m/s 746 mmHg 77%
    04:00 +16°C° 0 mm 1 m/s 746 mmHg 76%
    05:00 +18°C° 0 mm 1 m/s 746 mmHg 76%
    06:00 +18°C° 0 mm 1 m/s 746 mmHg 75%
    07:00 +19°C° 0.2 mm 2 m/s 746 mmHg 74%
    08:00 +20°C° 0.2 mm 3 m/s 746 mmHg 72%
    09:00 +22°C° 0.2 mm 4 m/s 746 mmHg 71%
    10:00 +22°C° 1.7 mm 4 m/s 745 mmHg 70%
    11:00 +23°C° 1.7 mm 5 m/s 745 mmHg 69%
    12:00 +23°C° 1.7 mm 5 m/s 744 mmHg 68%
    13:00 +23°C° 1.8 mm 5 m/s 744 mmHg 67%
    14:00 +23°C° 1.8 mm 4 m/s 744 mmHg 66%
    15:00 +25°C° 1.8 mm 4 m/s 744 mmHg 65%
    16:00 +24°C° 1.1 mm 3 m/s 743 mmHg 69%
    17:00 +22°C° 1.1 mm 3 m/s 743 mmHg 74%
    18:00 +21°C° 1.1 mm 3 m/s 743 mmHg 78%
    19:00 +20°C° 0.2 mm 2 m/s 742 mmHg 81%
    20:00 +20°C° 0.2 mm 2 m/s 742 mmHg 83%
    21:00 +20°C° 0.2 mm 1 m/s 742 mmHg 85%
    22:00 +19°C° 1.7 mm 1 m/s 741 mmHg 88%
    23:00 +19°C° 1.7 mm 1 m/s 741 mmHg 90%

    26 Maio, Domingo

    Tempo Temperatura Precipitação Vento Pressão Humidade
    00:00 +18°C° 1.7 mm 1 m/s 741 mmHg 93%
    01:00 +17°C° 0.7 mm 2 m/s 741 mmHg 94%
    02:00 +17°C° 0.7 mm 3 m/s 741 mmHg 94%
    03:00 +17°C° 0.7 mm 3 m/s 741 mmHg 95%
    04:00 +17°C° 0.2 mm 4 m/s 742 mmHg 95%
    05:00 +17°C° 0.2 mm 4 m/s 742 mmHg 95%
    06:00 +17°C° 0.2 mm 4 m/s 742 mmHg 95%
    07:00 +18°C° 0.4 mm 4 m/s 742 mmHg 91%
    08:00 +19°C° 0.4 mm 4 m/s 743 mmHg 88%
    09:00 +20°C° 0.4 mm 3 m/s 743 mmHg 84%
    10:00 +20°C° 0.8 mm 4 m/s 743 mmHg 81%
    11:00 +21°C° 0.8 mm 4 m/s 743 mmHg 77%
    12:00 +22°C° 0.8 mm 5 m/s 744 mmHg 74%
    13:00 +22°C° 0.5 mm 5 m/s 744 mmHg 72%
    14:00 +23°C° 0.5 mm 5 m/s 744 mmHg 69%
    15:00 +25°C° 0.5 mm 5 m/s 745 mmHg 67%
    16:00 +23°C° 0.1 mm 5 m/s 745 mmHg 68%
    17:00 +23°C° 0.1 mm 5 m/s 745 mmHg 68%
    18:00 +23°C° 0.1 mm 4 m/s 745 mmHg 69%
    19:00 +22°C° 0.1 mm 4 m/s 746 mmHg 74%
    20:00 +20°C° 0.1 mm 3 m/s 746 mmHg 79%
    21:00 +19°C° 0.1 mm 2 m/s 747 mmHg 84%
    22:00 +18°C° 0 mm 2 m/s 747 mmHg 86%
    23:00 +17°C° 0 mm 2 m/s 747 mmHg 88%
    Mostrar mais